WAT646 KPOB-KOFF

Flight info

Callsign WAT646
Flight time 2h 33m
Altitude 28000
Route PIYNE HRSST FARWY IIU SPI LMN MARWI4
Aircraft B763/H-SDE3FGHIM3RWXY/LB1

Departure

Time 2026-05-05 13:13
Airport Pope Field (KPOB)

Arrival

Time 2026-05-05 15:47
Airport Offutt Air Force Base (KOFF)
Time Latitude Longitude Altitude Speed Heading
2026-05-05 12:58 35.17256 -79.02010 203 ft 0 kts 223°
2026-05-05 13:08 35.17231 -79.02031 203 ft 8 kts 199°
2026-05-05 13:08 35.17182 -79.02011 205 ft 7 kts 140°
2026-05-05 13:08 35.17139 -79.01967 206 ft 8 kts 140°
2026-05-05 13:09 35.17116 -79.01912 206 ft 7 kts 77°
2026-05-05 13:09 35.17156 -79.01860 205 ft 10 kts 43°
2026-05-05 13:09 35.17216 -79.01791 204 ft 13 kts 43°
2026-05-05 13:09 35.17295 -79.01705 203 ft 16 kts 38°
2026-05-05 13:10 35.17387 -79.01615 202 ft 12 kts 39°
2026-05-05 13:10 35.17461 -79.01539 202 ft 14 kts 41°
2026-05-05 13:10 35.17545 -79.01449 202 ft 17 kts 41°
2026-05-05 13:10 35.17595 -79.01350 202 ft 14 kts 80°
2026-05-05 13:11 35.17594 -79.01222 201 ft 16 kts 82°
2026-05-05 13:11 35.17660 -79.01123 199 ft 14 kts 41°
2026-05-05 13:11 35.17740 -79.01038 198 ft 16 kts 40°
2026-05-05 13:11 35.17835 -79.00939 195 ft 18 kts 40°
2026-05-05 13:12 35.17931 -79.00825 193 ft 20 kts 63°
2026-05-05 13:12 35.17906 -79.00713 192 ft 0 kts 129°
2026-05-05 13:12 35.17906 -79.00712 192 ft 0 kts 129°
2026-05-05 13:12 35.17887 -79.00684 192 ft 9 kts 131°
2026-05-05 13:13 35.17835 -79.00658 192 ft 8 kts 223°
2026-05-05 13:13 35.17768 -79.00730 195 ft 32 kts 220°
2026-05-05 13:13 35.17345 -79.01180 204 ft 130 kts 221°
2026-05-05 13:13 35.16553 -79.02104 990 ft 170 kts 234°
2026-05-05 13:14 35.16256 -79.03487 2176 ft 185 kts 275°
2026-05-05 13:14 35.16848 -79.04951 3063 ft 216 kts 314°
2026-05-05 13:14 35.18250 -79.05789 4144 ft 241 kts 349°
2026-05-05 13:14 35.19970 -79.05826 5163 ft 263 kts 360°
2026-05-05 13:15 35.21838 -79.05763 6217 ft 283 kts 358°
2026-05-05 13:15 35.23788 -79.05982 7538 ft 289 kts 346°
2026-05-05 13:15 35.25758 -79.06656 8724 ft 301 kts 337°
2026-05-05 13:15 35.27710 -79.07607 10033 ft 308 kts 333°
2026-05-05 13:16 35.29645 -79.08688 11222 ft 318 kts 331°
2026-05-05 13:16 35.31678 -79.09926 12260 ft 334 kts 329°
2026-05-05 13:16 35.33778 -79.11262 13293 ft 349 kts 329°
2026-05-05 13:16 35.35926 -79.12656 14561 ft 356 kts 328°
2026-05-05 13:17 35.38102 -79.14063 15855 ft 361 kts 332°
2026-05-05 13:17 35.40493 -79.15008 17072 ft 371 kts 348°
2026-05-05 13:17 35.43080 -79.15102 18243 ft 381 kts
2026-05-05 13:17 35.45707 -79.14450 19379 ft 388 kts 10°
2026-05-05 13:18 35.48319 -79.13734 20468 ft 391 kts
2026-05-05 13:18 35.50969 -79.13004 21511 ft 396 kts
2026-05-05 13:18 35.53686 -79.12259 22510 ft 400 kts
2026-05-05 13:18 35.56324 -79.11174 23366 ft 410 kts 19°
2026-05-05 13:19 35.59021 -79.09981 24257 ft 410 kts 10°
2026-05-05 13:19 35.61808 -79.09421 25150 ft 408 kts 359°
2026-05-05 13:19 35.64669 -79.09510 25991 ft 406 kts 348°
2026-05-05 13:19 35.67391 -79.10238 26800 ft 404 kts 338°
2026-05-05 13:20 35.69975 -79.11576 27444 ft 406 kts 328°
2026-05-05 13:20 35.72322 -79.13502 28094 ft 405 kts 319°
2026-05-05 13:20 35.74397 -79.15939 28091 ft 419 kts 309°
2026-05-05 13:20 35.76104 -79.18848 28091 ft 427 kts 300°
2026-05-05 13:21 35.78693 -79.25384 28077 ft 423 kts 295°
2026-05-05 13:21 35.81262 -79.31897 28078 ft 423 kts 296°
2026-05-05 13:22 35.83842 -79.38355 28077 ft 423 kts 296°
2026-05-05 13:22 35.86464 -79.44891 28078 ft 424 kts 296°
2026-05-05 13:23 35.89069 -79.51384 28070 ft 422 kts 296°
2026-05-05 13:23 35.91674 -79.57881 28068 ft 424 kts 296°
2026-05-05 13:24 35.94267 -79.64359 28064 ft 422 kts 296°
2026-05-05 13:24 35.96856 -79.70841 28068 ft 423 kts 296°
2026-05-05 13:25 35.99462 -79.77380 28068 ft 421 kts 296°
2026-05-05 13:25 36.02045 -79.83869 28060 ft 421 kts 296°
2026-05-05 13:26 36.04619 -79.90353 28066 ft 421 kts 296°
2026-05-05 13:26 36.07191 -79.96844 28057 ft 421 kts 296°
2026-05-05 13:27 36.09761 -80.03340 28063 ft 422 kts 296°
2026-05-05 13:27 36.12317 -80.09817 28062 ft 422 kts 296°
2026-05-05 13:28 36.14881 -80.16325 28062 ft 422 kts 296°
2026-05-05 13:28 36.17451 -80.22864 28060 ft 422 kts 296°
2026-05-05 13:29 36.20003 -80.29369 28054 ft 422 kts 296°
2026-05-05 13:29 36.22547 -80.35868 28054 ft 421 kts 296°
2026-05-05 13:30 36.25099 -80.42399 28045 ft 422 kts 296°
2026-05-05 13:30 36.27648 -80.48936 28047 ft 422 kts 296°
2026-05-05 13:31 36.30189 -80.55467 28047 ft 422 kts 296°
2026-05-05 13:31 36.32738 -80.62032 28046 ft 422 kts 296°
2026-05-05 13:32 36.35283 -80.68599 28054 ft 423 kts 296°
2026-05-05 13:32 36.37804 -80.75118 28052 ft 423 kts 295°
2026-05-05 13:33 36.40354 -80.81724 28042 ft 421 kts 296°
2026-05-05 13:33 36.42871 -80.88262 28046 ft 422 kts 295°
2026-05-05 13:34 36.45395 -80.94830 28050 ft 423 kts 296°
2026-05-05 13:34 36.47931 -81.01444 28061 ft 423 kts 296°
2026-05-05 13:35 36.50447 -81.08015 28065 ft 423 kts 296°
2026-05-05 13:35 36.52956 -81.14584 28068 ft 422 kts 296°
2026-05-05 13:36 36.55479 -81.21205 28073 ft 423 kts 296°
2026-05-05 13:36 36.57987 -81.27799 28078 ft 423 kts 296°
2026-05-05 13:37 36.60499 -81.34418 28077 ft 422 kts 295°
2026-05-05 13:37 36.62995 -81.41008 28078 ft 423 kts 296°
2026-05-05 13:38 36.65513 -81.47671 28066 ft 423 kts 295°
2026-05-05 13:38 36.68002 -81.54272 28067 ft 420 kts 295°
2026-05-05 13:39 36.70493 -81.60889 28057 ft 423 kts 295°
2026-05-05 13:39 36.72964 -81.67471 28065 ft 422 kts 295°
2026-05-05 13:40 36.75464 -81.74117 28061 ft 422 kts 295°
2026-05-05 13:40 36.77939 -81.80720 28054 ft 421 kts 295°
2026-05-05 13:41 36.80392 -81.87318 28058 ft 423 kts 295°
2026-05-05 13:41 36.82860 -81.93959 28058 ft 421 kts 295°
2026-05-05 13:42 36.85316 -82.00570 28055 ft 422 kts 295°
2026-05-05 13:42 36.87791 -82.07250 28054 ft 423 kts 295°
2026-05-05 13:43 36.90237 -82.13859 28047 ft 421 kts 295°
2026-05-05 13:43 36.92683 -82.20486 28050 ft 421 kts 295°
2026-05-05 13:44 36.95140 -82.27155 28051 ft 422 kts 295°
2026-05-05 13:44 36.97574 -82.33777 28048 ft 419 kts 295°
2026-05-05 13:45 37.00008 -82.40412 28040 ft 421 kts 295°
2026-05-05 13:45 37.02433 -82.47035 28046 ft 418 kts 295°
2026-05-05 13:46 37.04851 -82.53658 28048 ft 420 kts 295°
2026-05-05 13:46 37.07256 -82.60257 28043 ft 418 kts 294°
2026-05-05 13:47 37.09668 -82.66889 28044 ft 419 kts 294°
2026-05-05 13:47 37.12062 -82.73493 28036 ft 418 kts 294°
2026-05-05 13:48 37.14450 -82.80086 28018 ft 417 kts 294°
2026-05-05 13:48 37.16843 -82.86705 28015 ft 416 kts 294°
2026-05-05 13:49 37.19244 -82.93366 27997 ft 417 kts 294°
2026-05-05 13:49 37.20423 -82.96644 27988 ft 415 kts 294°
2026-05-05 13:49 37.21614 -82.99955 27994 ft 416 kts 294°
2026-05-05 13:50 37.22801 -83.03261 27998 ft 417 kts 294°
2026-05-05 13:50 37.23984 -83.06559 27978 ft 415 kts 294°
2026-05-05 13:50 37.25178 -83.09893 27996 ft 416 kts 294°
2026-05-05 13:50 37.26360 -83.13191 28002 ft 416 kts 294°
2026-05-05 13:51 37.27537 -83.16483 27989 ft 415 kts 294°
2026-05-05 13:51 37.28720 -83.19795 27994 ft 413 kts 294°
2026-05-05 13:51 37.29895 -83.23089 27990 ft 414 kts 294°
2026-05-05 13:51 37.31060 -83.26361 27988 ft 415 kts 294°
2026-05-05 13:52 37.32244 -83.29684 27990 ft 413 kts 294°
2026-05-05 13:52 37.33403 -83.32945 27992 ft 413 kts 294°
2026-05-05 13:52 37.34573 -83.36239 27989 ft 412 kts 294°
2026-05-05 13:52 37.35743 -83.39535 27994 ft 412 kts 294°
2026-05-05 13:53 37.36909 -83.42825 27993 ft 412 kts 294°
2026-05-05 13:53 37.38069 -83.46099 27984 ft 413 kts 293°
2026-05-05 13:53 37.39237 -83.49400 27979 ft 413 kts 293°
2026-05-05 13:53 37.40390 -83.52666 27974 ft 412 kts 293°
2026-05-05 13:54 37.41560 -83.55980 27969 ft 411 kts 293°
2026-05-05 13:54 37.42713 -83.59252 27968 ft 412 kts 293°
2026-05-05 13:54 37.43868 -83.62530 27961 ft 411 kts 293°
2026-05-05 13:54 37.45020 -83.65806 27972 ft 411 kts 293°
2026-05-05 13:55 37.46167 -83.69070 27970 ft 412 kts 293°
2026-05-05 13:55 37.47331 -83.72386 27969 ft 411 kts 293°
2026-05-05 13:55 37.48474 -83.75647 27963 ft 411 kts 292°
2026-05-05 13:55 37.49626 -83.78937 27968 ft 412 kts 292°
2026-05-05 13:56 37.50784 -83.82246 27965 ft 409 kts 292°
2026-05-05 13:56 37.51917 -83.85487 27970 ft 409 kts 292°
2026-05-05 13:56 37.53071 -83.88792 27963 ft 411 kts 292°
2026-05-05 13:56 37.54220 -83.92089 27963 ft 409 kts 292°
2026-05-05 13:57 37.55362 -83.95364 27966 ft 409 kts 292°
2026-05-05 13:57 37.56496 -83.98624 27967 ft 411 kts 292°
2026-05-05 13:57 37.57632 -84.01897 27960 ft 410 kts 292°
2026-05-05 13:57 37.58775 -84.05190 27965 ft 409 kts 292°
2026-05-05 13:58 37.59911 -84.08461 27958 ft 408 kts 292°
2026-05-05 13:58 37.61052 -84.11758 27960 ft 409 kts 292°
2026-05-05 13:58 37.62178 -84.15016 27954 ft 408 kts 292°
2026-05-05 13:58 37.63309 -84.18286 27964 ft 409 kts 292°
2026-05-05 13:59 37.65573 -84.24848 27961 ft 409 kts 292°
2026-05-05 13:59 37.66715 -84.28160 27960 ft 409 kts 292°
2026-05-05 14:00 37.68972 -84.34723 27960 ft 409 kts 292°
2026-05-05 14:00 37.69729 -84.36930 27950 ft 408 kts 292°
2026-05-05 14:00 37.71232 -84.41311 27953 ft 408 kts 292°
2026-05-05 14:00 37.72353 -84.44582 27942 ft 408 kts 292°
2026-05-05 14:01 37.73466 -84.47836 27934 ft 408 kts 292°
2026-05-05 14:01 37.74587 -84.51114 27934 ft 407 kts 292°
2026-05-05 14:01 37.75707 -84.54392 27929 ft 407 kts 292°
2026-05-05 14:01 37.76834 -84.57699 27928 ft 409 kts 292°
2026-05-05 14:02 37.77949 -84.60972 27912 ft 409 kts 291°
2026-05-05 14:02 37.79074 -84.64278 27915 ft 408 kts 292°
2026-05-05 14:02 37.80194 -84.67573 27938 ft 407 kts 291°
2026-05-05 14:02 37.81303 -84.70840 27933 ft 408 kts 291°
2026-05-05 14:03 37.82429 -84.74158 27923 ft 406 kts 291°
2026-05-05 14:03 37.83536 -84.77428 27929 ft 407 kts 291°
2026-05-05 14:03 37.84646 -84.80710 27925 ft 406 kts 291°
2026-05-05 14:03 37.85750 -84.83974 27925 ft 406 kts 291°
2026-05-05 14:04 37.86864 -84.87273 27924 ft 407 kts 291°
2026-05-05 14:04 37.87976 -84.90569 27929 ft 407 kts 291°
2026-05-05 14:04 37.89084 -84.93858 27919 ft 408 kts 291°
2026-05-05 14:04 37.90193 -84.97156 27918 ft 408 kts 291°
2026-05-05 14:05 37.91306 -85.00468 27920 ft 408 kts 291°
2026-05-05 14:05 37.92404 -85.03738 27917 ft 408 kts 291°
2026-05-05 14:05 37.93515 -85.07050 27914 ft 408 kts 291°
2026-05-05 14:05 37.94617 -85.10339 27918 ft 407 kts 291°
2026-05-05 14:06 37.95718 -85.13631 27906 ft 405 kts 291°
2026-05-05 14:06 37.96804 -85.16882 27905 ft 405 kts 291°
2026-05-05 14:06 37.97905 -85.20177 27912 ft 407 kts 291°
2026-05-05 14:06 37.99009 -85.23490 27913 ft 407 kts 291°
2026-05-05 14:07 38.00108 -85.26787 27907 ft 405 kts 290°
2026-05-05 14:07 38.01196 -85.30061 27911 ft 404 kts 290°
2026-05-05 14:07 38.02289 -85.33350 27904 ft 406 kts 291°
2026-05-05 14:07 38.03384 -85.36649 27908 ft 406 kts 290°
2026-05-05 14:08 38.04475 -85.39938 27899 ft 406 kts 291°
2026-05-05 14:08 38.05569 -85.43242 27903 ft 407 kts 291°
2026-05-05 14:08 38.06666 -85.46555 27893 ft 406 kts 290°
2026-05-05 14:08 38.07748 -85.49832 27896 ft 406 kts 290°
2026-05-05 14:09 38.08843 -85.53148 27903 ft 406 kts 290°
2026-05-05 14:09 38.09932 -85.56454 27901 ft 406 kts 290°
2026-05-05 14:09 38.11115 -85.59637 27882 ft 400 kts 297°
2026-05-05 14:09 38.12514 -85.62620 27893 ft 384 kts 297°
2026-05-05 14:10 38.13823 -85.65494 27890 ft 378 kts 296°
2026-05-05 14:10 38.15129 -85.68367 27910 ft 382 kts 296°
2026-05-05 14:10 38.16442 -85.71271 27912 ft 386 kts 296°
2026-05-05 14:10 38.17767 -85.74206 27900 ft 384 kts 296°
2026-05-05 14:11 38.19088 -85.77138 27902 ft 383 kts 296°
2026-05-05 14:11 38.20414 -85.80090 27896 ft 383 kts 296°
2026-05-05 14:11 38.21733 -85.83030 27895 ft 384 kts 296°
2026-05-05 14:11 38.23047 -85.85962 27901 ft 382 kts 296°
2026-05-05 14:12 38.24356 -85.88888 27895 ft 381 kts 296°
2026-05-05 14:12 38.25658 -85.91798 27901 ft 383 kts 296°
2026-05-05 14:12 38.26985 -85.94774 27900 ft 383 kts 296°
2026-05-05 14:12 38.28303 -85.97726 27898 ft 384 kts 296°
2026-05-05 14:13 38.29620 -86.00677 27895 ft 384 kts 296°
2026-05-05 14:13 38.30921 -86.03598 27891 ft 382 kts 295°
2026-05-05 14:13 38.32227 -86.06531 27879 ft 381 kts 296°
2026-05-05 14:13 38.33530 -86.09464 27884 ft 383 kts 296°
2026-05-05 14:14 38.34857 -86.12450 27872 ft 384 kts 295°
2026-05-05 14:14 38.36158 -86.15382 27874 ft 382 kts 296°
2026-05-05 14:14 38.37470 -86.18340 27879 ft 381 kts 296°
2026-05-05 14:14 38.38764 -86.21262 27865 ft 381 kts 295°
2026-05-05 14:15 38.40067 -86.24209 27876 ft 384 kts 296°
2026-05-05 14:15 38.41372 -86.27160 27872 ft 384 kts 296°
2026-05-05 14:15 38.42689 -86.30140 27874 ft 383 kts 295°
2026-05-05 14:15 38.43981 -86.33064 27871 ft 382 kts 295°
2026-05-05 14:16 38.45280 -86.36013 27869 ft 382 kts 295°
2026-05-05 14:16 38.46574 -86.38952 27869 ft 382 kts 295°
2026-05-05 14:16 38.47883 -86.41925 27875 ft 382 kts 295°
2026-05-05 14:16 38.49192 -86.44904 27865 ft 382 kts 295°
2026-05-05 14:17 38.50476 -86.47826 27867 ft 381 kts 295°
2026-05-05 14:17 38.51767 -86.50768 27873 ft 382 kts 295°
2026-05-05 14:17 38.53078 -86.53758 27875 ft 381 kts 295°
2026-05-05 14:17 38.54353 -86.56668 27870 ft 381 kts 295°
2026-05-05 14:18 38.55647 -86.59622 27871 ft 381 kts 295°
2026-05-05 14:18 38.56945 -86.62591 27870 ft 381 kts 295°
2026-05-05 14:18 38.58219 -86.65511 27878 ft 381 kts 294°
2026-05-05 14:18 38.59522 -86.68496 27881 ft 380 kts 294°
2026-05-05 14:19 38.60801 -86.71429 27878 ft 379 kts 294°
2026-05-05 14:19 38.62074 -86.74351 27875 ft 381 kts 294°
2026-05-05 14:19 38.63366 -86.77322 27873 ft 383 kts 294°
2026-05-05 14:19 38.64667 -86.80311 27864 ft 381 kts 294°
2026-05-05 14:20 38.65948 -86.83260 27868 ft 380 kts 294°
2026-05-05 14:20 38.67226 -86.86204 27865 ft 381 kts 294°
2026-05-05 14:20 38.68510 -86.89166 27862 ft 381 kts 294°
2026-05-05 14:20 38.69788 -86.92118 27861 ft 381 kts 294°
2026-05-05 14:21 38.71075 -86.95094 27858 ft 381 kts 294°
2026-05-05 14:21 38.72358 -86.98061 27862 ft 383 kts 294°
2026-05-05 14:21 38.73644 -87.01039 27857 ft 381 kts 294°
2026-05-05 14:21 38.74913 -87.03978 27855 ft 380 kts 294°
2026-05-05 14:22 38.76205 -87.06975 27855 ft 382 kts 294°
2026-05-05 14:22 38.77486 -87.09950 27853 ft 383 kts 294°
2026-05-05 14:22 38.78780 -87.12958 27855 ft 384 kts 294°
2026-05-05 14:22 38.80059 -87.15931 27852 ft 383 kts 294°
2026-05-05 14:23 38.81342 -87.18915 27844 ft 382 kts 294°
2026-05-05 14:23 38.82612 -87.21880 27847 ft 383 kts 293°
2026-05-05 14:23 38.83890 -87.24857 27846 ft 381 kts 293°
2026-05-05 14:23 38.85183 -87.27879 27843 ft 384 kts 294°
2026-05-05 14:24 38.86453 -87.30853 27844 ft 384 kts 294°
2026-05-05 14:24 38.87735 -87.33849 27844 ft 383 kts 294°
2026-05-05 14:24 38.89019 -87.36852 27841 ft 382 kts 293°
2026-05-05 14:24 38.90286 -87.39825 27844 ft 383 kts 293°
2026-05-05 14:25 38.91564 -87.42823 27841 ft 385 kts 293°
2026-05-05 14:25 38.92845 -87.45827 27838 ft 383 kts 293°
2026-05-05 14:25 38.94128 -87.48846 27840 ft 384 kts 292°
2026-05-05 14:25 38.95401 -87.51843 27843 ft 384 kts 293°
2026-05-05 14:26 38.96685 -87.54862 27839 ft 382 kts 293°
2026-05-05 14:26 38.97949 -87.57846 27843 ft 383 kts 293°
2026-05-05 14:26 38.99222 -87.60850 27840 ft 384 kts 292°
2026-05-05 14:26 39.00494 -87.63855 27844 ft 385 kts 293°
2026-05-05 14:27 39.01769 -87.66866 27851 ft 383 kts 292°
2026-05-05 14:27 39.03035 -87.69863 27860 ft 382 kts 292°
2026-05-05 14:27 39.04299 -87.72859 27848 ft 381 kts 292°
2026-05-05 14:27 39.05559 -87.75846 27865 ft 382 kts 292°
2026-05-05 14:28 39.06828 -87.78861 27856 ft 382 kts 292°
2026-05-05 14:28 39.08087 -87.81852 27846 ft 382 kts 291°
2026-05-05 14:28 39.09355 -87.84869 27852 ft 385 kts 292°
2026-05-05 14:28 39.10619 -87.87877 27840 ft 384 kts 292°
2026-05-05 14:29 39.11888 -87.90899 27844 ft 381 kts 291°
2026-05-05 14:29 39.13152 -87.93916 27845 ft 382 kts 292°
2026-05-05 14:29 39.14409 -87.96915 27834 ft 383 kts 291°
2026-05-05 14:29 39.15684 -87.99962 27846 ft 385 kts 291°
2026-05-05 14:30 39.16948 -88.02984 27832 ft 384 kts 292°
2026-05-05 14:30 39.18198 -88.05981 27823 ft 380 kts 292°
2026-05-05 14:30 39.19445 -88.08971 27846 ft 382 kts 291°
2026-05-05 14:30 39.20703 -88.11989 27820 ft 385 kts 292°
2026-05-05 14:31 39.21968 -88.15027 27843 ft 385 kts 291°
2026-05-05 14:31 39.23231 -88.18059 27830 ft 381 kts 292°
2026-05-05 14:31 39.24485 -88.21076 27849 ft 381 kts 292°
2026-05-05 14:31 39.25732 -88.24079 27844 ft 380 kts 292°
2026-05-05 14:32 39.26971 -88.27070 27853 ft 381 kts 292°
2026-05-05 14:32 39.28235 -88.30123 27858 ft 383 kts 292°
2026-05-05 14:32 39.29482 -88.33129 27848 ft 381 kts 292°
2026-05-05 14:32 39.30718 -88.36119 27849 ft 380 kts 292°
2026-05-05 14:33 39.31965 -88.39137 27857 ft 382 kts 292°
2026-05-05 14:33 39.33215 -88.42168 27855 ft 381 kts 292°
2026-05-05 14:33 39.34456 -88.45175 27855 ft 379 kts 292°
2026-05-05 14:33 39.35705 -88.48207 27850 ft 381 kts 292°
2026-05-05 14:34 39.36940 -88.51209 27854 ft 383 kts 292°
2026-05-05 14:34 39.38177 -88.54216 27848 ft 378 kts 292°
2026-05-05 14:34 39.39417 -88.57232 27854 ft 379 kts 292°
2026-05-05 14:34 39.40643 -88.60223 27853 ft 379 kts 293°
2026-05-05 14:35 39.41880 -88.63242 27853 ft 380 kts 292°
2026-05-05 14:35 39.43126 -88.66282 27858 ft 378 kts 292°
2026-05-05 14:35 39.44346 -88.69266 27865 ft 381 kts 292°
2026-05-05 14:35 39.45599 -88.72340 27882 ft 397 kts 292°
2026-05-05 14:36 39.46905 -88.75540 27868 ft 405 kts 292°
2026-05-05 14:36 39.48224 -88.78775 27872 ft 402 kts 292°
2026-05-05 14:36 39.49522 -88.81950 27878 ft 399 kts 293°
2026-05-05 14:36 39.50812 -88.85121 27875 ft 400 kts 293°
2026-05-05 14:37 39.52107 -88.88304 27874 ft 401 kts 292°
2026-05-05 14:37 39.53413 -88.91517 27874 ft 400 kts 292°
2026-05-05 14:37 39.54691 -88.94666 27884 ft 400 kts 294°
2026-05-05 14:37 39.55986 -88.97862 27868 ft 399 kts 292°
2026-05-05 14:38 39.57274 -89.01037 27874 ft 402 kts 293°
2026-05-05 14:38 39.58583 -89.04281 27876 ft 404 kts 293°
2026-05-05 14:38 39.59874 -89.07474 27866 ft 399 kts 293°
2026-05-05 14:38 39.61161 -89.10654 27868 ft 396 kts 293°
2026-05-05 14:39 39.62425 -89.13794 27873 ft 401 kts 292°
2026-05-05 14:39 39.63720 -89.17014 27865 ft 403 kts 293°
2026-05-05 14:39 39.65007 -89.20209 27873 ft 398 kts 293°
2026-05-05 14:39 39.66279 -89.23372 27868 ft 397 kts 292°
2026-05-05 14:40 39.67567 -89.26583 27872 ft 401 kts 292°
2026-05-05 14:40 39.68840 -89.29760 27862 ft 399 kts 293°
2026-05-05 14:40 39.70125 -89.32960 27873 ft 395 kts 292°
2026-05-05 14:40 39.71378 -89.36091 27876 ft 396 kts 292°
2026-05-05 14:41 39.72659 -89.39298 27879 ft 397 kts 293°
2026-05-05 14:41 39.73927 -89.42477 27873 ft 397 kts 293°
2026-05-05 14:41 39.75192 -89.45640 27880 ft 398 kts 292°
2026-05-05 14:41 39.76474 -89.48855 27876 ft 397 kts 293°
2026-05-05 14:42 39.77725 -89.51998 27887 ft 397 kts 292°
2026-05-05 14:42 39.78997 -89.55206 27884 ft 397 kts 292°
2026-05-05 14:42 39.80264 -89.58381 27881 ft 395 kts 292°
2026-05-05 14:42 39.81516 -89.61544 27880 ft 395 kts 292°
2026-05-05 14:43 39.82783 -89.64738 27883 ft 397 kts 292°
2026-05-05 14:43 39.83866 -89.67975 27891 ft 381 kts 283°
2026-05-05 14:43 39.84560 -89.71217 27883 ft 364 kts 282°
2026-05-05 14:43 39.85212 -89.74339 27884 ft 359 kts 282°
2026-05-05 14:44 39.85855 -89.77508 27890 ft 362 kts 281°
2026-05-05 14:44 39.86491 -89.80682 27893 ft 365 kts 281°
2026-05-05 14:44 39.87128 -89.83896 27892 ft 367 kts 281°
2026-05-05 14:44 39.87751 -89.87063 27886 ft 363 kts 281°
2026-05-05 14:45 39.88376 -89.90241 27884 ft 361 kts 281°
2026-05-05 14:45 39.88995 -89.93411 27884 ft 362 kts 281°
2026-05-05 14:45 39.89608 -89.96564 27877 ft 362 kts 281°
2026-05-05 14:45 39.90231 -89.99760 27884 ft 361 kts 281°
2026-05-05 14:46 39.90844 -90.02929 27886 ft 362 kts 281°
2026-05-05 14:46 39.91462 -90.06116 27875 ft 363 kts 280°
2026-05-05 14:46 39.92077 -90.09302 27888 ft 364 kts 281°
2026-05-05 14:46 39.92689 -90.12472 27888 ft 364 kts 281°
2026-05-05 14:47 39.93306 -90.15668 27879 ft 363 kts 281°
2026-05-05 14:47 39.93917 -90.18853 27888 ft 365 kts 280°
2026-05-05 14:47 39.94541 -90.22105 27881 ft 368 kts 281°
2026-05-05 14:47 39.95157 -90.25314 27883 ft 364 kts 281°
2026-05-05 14:48 39.95761 -90.28479 27882 ft 364 kts 281°
2026-05-05 14:48 39.96375 -90.31691 27882 ft 366 kts 281°
2026-05-05 14:48 39.96988 -90.34911 27892 ft 368 kts 281°
2026-05-05 14:48 39.97601 -90.38128 27882 ft 364 kts 281°
2026-05-05 14:49 39.98215 -90.41355 27903 ft 367 kts 281°
2026-05-05 14:49 39.98826 -90.44579 27888 ft 368 kts 281°
2026-05-05 14:49 39.99440 -90.47812 27892 ft 366 kts 281°
2026-05-05 14:49 40.00048 -90.51032 27889 ft 366 kts 281°
2026-05-05 14:50 40.00658 -90.54266 27903 ft 369 kts 281°
2026-05-05 14:50 40.01266 -90.57483 27887 ft 367 kts 281°
2026-05-05 14:50 40.01879 -90.60743 27890 ft 366 kts 281°
2026-05-05 14:50 40.02480 -90.63944 27901 ft 366 kts 281°
2026-05-05 14:51 40.03083 -90.67163 27911 ft 367 kts 281°
2026-05-05 14:51 40.03693 -90.70416 27903 ft 366 kts 280°
2026-05-05 14:51 40.04292 -90.73621 27909 ft 366 kts 281°
2026-05-05 14:51 40.04893 -90.76841 27913 ft 366 kts 280°
2026-05-05 14:52 40.05493 -90.80057 27910 ft 365 kts 281°
2026-05-05 14:52 40.06094 -90.83290 27908 ft 365 kts 281°
2026-05-05 14:52 40.06690 -90.86492 27924 ft 366 kts 280°
2026-05-05 14:52 40.07286 -90.89718 27917 ft 369 kts 281°
2026-05-05 14:53 40.07885 -90.92947 27916 ft 366 kts 280°
2026-05-05 14:53 40.08480 -90.96171 27906 ft 364 kts 281°
2026-05-05 14:53 40.09074 -90.99385 27919 ft 368 kts 281°
2026-05-05 14:53 40.09675 -91.02655 27920 ft 368 kts 281°
2026-05-05 14:54 40.10269 -91.05886 27919 ft 366 kts 280°
2026-05-05 14:54 40.10854 -91.09074 27910 ft 366 kts 281°
2026-05-05 14:54 40.11448 -91.12309 27921 ft 366 kts 280°
2026-05-05 14:54 40.12037 -91.15537 27916 ft 369 kts 281°
2026-05-05 14:55 40.12636 -91.18808 27905 ft 368 kts 281°
2026-05-05 14:55 40.13221 -91.22021 27934 ft 368 kts 280°
2026-05-05 14:55 40.13821 -91.25314 27924 ft 367 kts 280°
2026-05-05 14:55 40.14407 -91.28548 27934 ft 367 kts 281°
2026-05-05 14:56 40.14993 -91.31772 27930 ft 367 kts 281°
2026-05-05 14:56 40.15575 -91.34990 27930 ft 366 kts 280°
2026-05-05 14:56 40.16165 -91.38249 27935 ft 365 kts 281°
2026-05-05 14:56 40.16747 -91.41481 27934 ft 367 kts 281°
2026-05-05 14:57 40.17329 -91.44701 27933 ft 366 kts 281°
2026-05-05 14:57 40.17913 -91.47955 27924 ft 366 kts 280°
2026-05-05 14:57 40.18487 -91.51154 27923 ft 366 kts 280°
2026-05-05 14:57 40.19071 -91.54411 27929 ft 366 kts 280°
2026-05-05 14:58 40.19651 -91.57649 27921 ft 367 kts 280°
2026-05-05 14:58 40.20229 -91.60882 27929 ft 367 kts 279°
2026-05-05 14:58 40.20805 -91.64123 27918 ft 366 kts 280°
2026-05-05 14:58 40.21386 -91.67387 27934 ft 366 kts 280°
2026-05-05 14:59 40.21965 -91.70647 27944 ft 368 kts 279°
2026-05-05 14:59 40.22543 -91.73902 27943 ft 366 kts 279°
2026-05-05 14:59 40.23110 -91.77103 27934 ft 365 kts 279°
2026-05-05 14:59 40.23677 -91.80318 27930 ft 365 kts 279°
2026-05-05 15:00 40.24255 -91.83591 27951 ft 364 kts 279°
2026-05-05 15:00 40.24630 -91.85710 27939 ft 365 kts 279°
2026-05-05 15:00 40.25392 -91.90052 27943 ft 365 kts 279°
2026-05-05 15:00 40.25956 -91.93259 27934 ft 365 kts 279°
2026-05-05 15:01 40.26526 -91.96514 27945 ft 366 kts 279°
2026-05-05 15:01 40.27088 -91.99729 27935 ft 364 kts 279°
2026-05-05 15:01 40.27655 -92.02973 27933 ft 364 kts 279°
2026-05-05 15:01 40.28213 -92.06178 27941 ft 365 kts 279°
2026-05-05 15:02 40.28782 -92.09449 27949 ft 367 kts 279°
2026-05-05 15:02 40.29343 -92.12682 27935 ft 364 kts 279°
2026-05-05 15:02 40.29897 -92.15878 27943 ft 363 kts 279°
2026-05-05 15:02 40.30456 -92.19110 27941 ft 364 kts 279°
2026-05-05 15:03 40.31019 -92.22365 27943 ft 365 kts 279°
2026-05-05 15:03 40.31576 -92.25598 27938 ft 364 kts 279°
2026-05-05 15:03 40.32135 -92.28844 27942 ft 364 kts 279°
2026-05-05 15:03 40.32684 -92.32046 27943 ft 364 kts 279°
2026-05-05 15:04 40.33239 -92.35277 27921 ft 363 kts 279°
2026-05-05 15:04 40.33790 -92.38488 27565 ft 361 kts 278°
2026-05-05 15:04 40.34335 -92.41676 26916 ft 360 kts 279°
2026-05-05 15:04 40.34878 -92.44867 26227 ft 360 kts 278°
2026-05-05 15:05 40.35961 -92.51237 24916 ft 358 kts 279°
2026-05-05 15:05 40.36499 -92.54433 24354 ft 360 kts 278°
2026-05-05 15:05 40.37026 -92.57654 24183 ft 363 kts 278°
2026-05-05 15:06 40.37550 -92.60901 24179 ft 369 kts 278°
2026-05-05 15:06 40.38094 -92.64213 24177 ft 375 kts 278°
2026-05-05 15:06 40.38652 -92.67606 24179 ft 381 kts 278°
2026-05-05 15:06 40.39208 -92.70979 24190 ft 386 kts 278°
2026-05-05 15:07 40.39778 -92.74433 24199 ft 390 kts 278°
2026-05-05 15:07 40.40360 -92.77963 24209 ft 395 kts 278°
2026-05-05 15:07 40.40938 -92.81480 24214 ft 399 kts 278°
2026-05-05 15:07 40.41526 -92.85046 24216 ft 403 kts 278°
2026-05-05 15:08 40.42118 -92.88625 24223 ft 406 kts 278°
2026-05-05 15:08 40.42716 -92.92248 24229 ft 409 kts 278°
2026-05-05 15:08 40.43325 -92.95951 24227 ft 412 kts 278°
2026-05-05 15:08 40.43924 -92.99606 24231 ft 415 kts 278°
2026-05-05 15:09 40.44532 -93.03320 24221 ft 418 kts 279°
2026-05-05 15:09 40.45146 -93.07053 24225 ft 420 kts 278°
2026-05-05 15:09 40.45769 -93.10843 24226 ft 422 kts 278°
2026-05-05 15:09 40.46377 -93.14582 24223 ft 424 kts 278°
2026-05-05 15:10 40.46997 -93.18406 24212 ft 426 kts 278°
2026-05-05 15:10 40.47621 -93.22197 24209 ft 428 kts 279°
2026-05-05 15:10 40.48239 -93.26063 24201 ft 429 kts 278°
2026-05-05 15:10 40.48850 -93.29889 24197 ft 431 kts 278°
2026-05-05 15:11 40.49465 -93.33710 24189 ft 432 kts 278°
2026-05-05 15:11 40.50090 -93.37612 24180 ft 433 kts 278°
2026-05-05 15:11 40.50715 -93.41486 24130 ft 432 kts 278°
2026-05-05 15:11 40.51349 -93.45314 24060 ft 423 kts 280°
2026-05-05 15:12 40.52004 -93.48952 23687 ft 407 kts 279°
2026-05-05 15:12 40.52615 -93.52533 23297 ft 393 kts 279°
2026-05-05 15:12 40.53198 -93.55999 22909 ft 381 kts 279°
2026-05-05 15:12 40.53745 -93.59312 22527 ft 370 kts 279°
2026-05-05 15:13 40.54274 -93.62563 22138 ft 359 kts 278°
2026-05-05 15:13 40.54786 -93.65745 21764 ft 357 kts 278°
2026-05-05 15:13 40.55299 -93.68967 21410 ft 361 kts 278°
2026-05-05 15:13 40.55817 -93.72219 21047 ft 363 kts 278°
2026-05-05 15:14 40.56327 -93.75431 20692 ft 362 kts 278°
2026-05-05 15:14 40.56835 -93.78641 20326 ft 357 kts 278°
2026-05-05 15:14 40.57343 -93.81853 19956 ft 356 kts 278°
2026-05-05 15:14 40.57847 -93.85055 19587 ft 357 kts 278°
2026-05-05 15:15 40.58342 -93.88204 19227 ft 357 kts 278°
2026-05-05 15:15 40.58847 -93.91430 18854 ft 356 kts 278°
2026-05-05 15:15 40.59338 -93.94566 18495 ft 354 kts 278°
2026-05-05 15:15 40.59844 -93.97756 18126 ft 353 kts 279°
2026-05-05 15:16 40.60369 -94.00869 17762 ft 351 kts 279°
2026-05-05 15:16 40.60891 -94.03999 17403 ft 350 kts 280°
2026-05-05 15:16 40.61414 -94.07131 17037 ft 348 kts 279°
2026-05-05 15:16 40.61932 -94.10246 16674 ft 348 kts 279°
2026-05-05 15:17 40.62446 -94.13334 16308 ft 346 kts 280°
2026-05-05 15:17 40.62954 -94.16402 15946 ft 344 kts 280°
2026-05-05 15:17 40.63459 -94.19452 15577 ft 341 kts 280°
2026-05-05 15:17 40.63961 -94.22491 15209 ft 340 kts 280°
2026-05-05 15:18 40.64465 -94.25536 14841 ft 339 kts 280°
2026-05-05 15:18 40.64959 -94.28548 14471 ft 339 kts 281°
2026-05-05 15:18 40.65456 -94.31565 14101 ft 337 kts 281°
2026-05-05 15:18 40.65945 -94.34547 13726 ft 333 kts 281°
2026-05-05 15:19 40.66431 -94.37517 13357 ft 332 kts 281°
2026-05-05 15:19 40.66918 -94.40489 12985 ft 331 kts 281°
2026-05-05 15:19 40.67403 -94.43462 12611 ft 330 kts 281°
2026-05-05 15:19 40.67878 -94.46379 12239 ft 328 kts 282°
2026-05-05 15:20 40.68354 -94.49306 11864 ft 326 kts 282°
2026-05-05 15:20 40.68829 -94.52228 11483 ft 324 kts 282°
2026-05-05 15:20 40.69297 -94.55109 11105 ft 322 kts 282°
2026-05-05 15:20 40.69758 -94.57961 10950 ft 314 kts 283°
2026-05-05 15:21 40.70203 -94.60709 10947 ft 295 kts 283°
2026-05-05 15:21 40.70616 -94.63269 10945 ft 278 kts 283°
2026-05-05 15:21 40.71006 -94.65688 10948 ft 262 kts 282°
2026-05-05 15:21 40.71375 -94.67984 10956 ft 250 kts 282°
2026-05-05 15:22 40.71731 -94.70196 10970 ft 250 kts 282°
2026-05-05 15:22 40.72096 -94.72470 10974 ft 255 kts 282°
2026-05-05 15:22 40.72464 -94.74766 10972 ft 253 kts 282°
2026-05-05 15:22 40.72823 -94.77011 10969 ft 252 kts 282°
2026-05-05 15:23 40.73186 -94.79276 10970 ft 253 kts 282°
2026-05-05 15:23 40.73547 -94.81541 10973 ft 254 kts 282°
2026-05-05 15:23 40.73913 -94.83836 10809 ft 257 kts 282°
2026-05-05 15:23 40.74281 -94.86146 10428 ft 259 kts 283°
2026-05-05 15:24 40.74651 -94.88474 10050 ft 259 kts 283°
2026-05-05 15:24 40.75017 -94.90782 9675 ft 259 kts 283°
2026-05-05 15:24 40.75383 -94.93094 9326 ft 258 kts 284°
2026-05-05 15:24 40.75750 -94.95406 8999 ft 255 kts 284°
2026-05-05 15:25 40.76102 -94.97633 8978 ft 244 kts 284°
2026-05-05 15:25 40.76452 -94.99843 8989 ft 248 kts 284°
2026-05-05 15:25 40.76807 -95.02089 8962 ft 254 kts 284°
2026-05-05 15:25 40.77118 -95.04417 8588 ft 260 kts 275°
2026-05-05 15:26 40.76747 -95.06780 8216 ft 268 kts 248°
2026-05-05 15:26 40.75547 -95.08672 7867 ft 278 kts 220°
2026-05-05 15:26 40.73775 -95.09671 7509 ft 286 kts 192°
2026-05-05 15:26 40.71773 -95.09523 7156 ft 290 kts 163°
2026-05-05 15:27 40.70034 -95.08231 6809 ft 286 kts 134°
2026-05-05 15:27 40.68959 -95.06138 6529 ft 270 kts 106°
2026-05-05 15:27 40.68739 -95.03772 6143 ft 254 kts 77°
2026-05-05 15:27 40.69377 -95.01715 5761 ft 239 kts 47°
2026-05-05 15:28 40.70673 -95.00446 5379 ft 228 kts 18°
2026-05-05 15:28 40.72195 -95.00307 5001 ft 223 kts 347°
2026-05-05 15:28 40.73572 -95.01229 4631 ft 223 kts 325°
2026-05-05 15:28 40.74706 -95.02610 4258 ft 224 kts 315°
2026-05-05 15:29 40.75687 -95.04231 3875 ft 225 kts 308°
2026-05-05 15:29 40.76547 -95.05963 3496 ft 226 kts 304°
2026-05-05 15:29 40.77336 -95.07767 3119 ft 227 kts 302°
2026-05-05 15:29 40.78043 -95.09534 2970 ft 206 kts 300°
2026-05-05 15:30 40.78628 -95.11080 2970 ft 172 kts 300°
2026-05-05 15:30 40.79120 -95.12405 2959 ft 155 kts 300°
2026-05-05 15:30 40.79599 -95.13714 3010 ft 162 kts 300°
2026-05-05 15:30 40.80085 -95.15070 3002 ft 160 kts 299°
2026-05-05 15:31 40.80545 -95.16372 3024 ft 156 kts 299°
2026-05-05 15:31 40.81013 -95.17699 3003 ft 160 kts 298°
2026-05-05 15:31 40.81479 -95.19034 2991 ft 159 kts 298°
2026-05-05 15:31 40.81939 -95.20355 2995 ft 159 kts 299°
2026-05-05 15:32 40.82406 -95.21699 2997 ft 159 kts 298°
2026-05-05 15:32 40.82867 -95.23029 2996 ft 159 kts 298°
2026-05-05 15:32 40.83331 -95.24369 2991 ft 159 kts 299°
2026-05-05 15:32 40.83787 -95.25687 2994 ft 159 kts 299°
2026-05-05 15:33 40.84248 -95.27020 2993 ft 158 kts 300°
2026-05-05 15:33 40.84691 -95.28309 2973 ft 151 kts 300°
2026-05-05 15:33 40.85127 -95.29571 2993 ft 151 kts 300°
2026-05-05 15:33 40.85562 -95.30829 2995 ft 151 kts 299°
2026-05-05 15:34 40.86002 -95.32103 2990 ft 150 kts 299°
2026-05-05 15:34 40.86438 -95.33364 2990 ft 150 kts 299°
2026-05-05 15:34 40.86871 -95.34621 2995 ft 150 kts 299°
2026-05-05 15:34 40.87299 -95.35864 2992 ft 149 kts 299°
2026-05-05 15:35 40.87733 -95.37125 2996 ft 150 kts 299°
2026-05-05 15:35 40.88162 -95.38372 2998 ft 149 kts 299°
2026-05-05 15:35 40.88590 -95.39618 2993 ft 148 kts 299°
2026-05-05 15:35 40.89016 -95.40858 2995 ft 149 kts 299°
2026-05-05 15:36 40.89446 -95.42107 3000 ft 150 kts 300°
2026-05-05 15:36 40.89881 -95.43372 2999 ft 149 kts 300°
2026-05-05 15:36 40.90306 -95.44612 2996 ft 149 kts 299°
2026-05-05 15:36 40.90739 -95.45873 3001 ft 149 kts 299°
2026-05-05 15:37 40.91167 -95.47117 2999 ft 150 kts 299°
2026-05-05 15:37 40.91598 -95.48375 3002 ft 150 kts 300°
2026-05-05 15:37 40.92033 -95.49638 3003 ft 151 kts 300°
2026-05-05 15:37 40.92461 -95.50893 2993 ft 149 kts 300°
2026-05-05 15:38 40.92889 -95.52146 3004 ft 149 kts 300°
2026-05-05 15:38 40.93318 -95.53399 2999 ft 148 kts 300°
2026-05-05 15:38 40.93741 -95.54636 2997 ft 147 kts 300°
2026-05-05 15:38 40.94160 -95.55861 2995 ft 149 kts 300°
2026-05-05 15:39 40.94592 -95.57124 3000 ft 149 kts 300°
2026-05-05 15:39 40.95016 -95.58365 2993 ft 148 kts 299°
2026-05-05 15:39 40.95440 -95.59607 2999 ft 148 kts 300°
2026-05-05 15:39 40.95867 -95.60854 2997 ft 149 kts 300°
2026-05-05 15:40 40.96295 -95.62109 3001 ft 148 kts 300°
2026-05-05 15:40 40.96719 -95.63354 2994 ft 149 kts 300°
2026-05-05 15:40 40.97129 -95.64626 2996 ft 151 kts 296°
2026-05-05 15:40 40.97539 -95.65888 3003 ft 149 kts 300°
2026-05-05 15:41 40.98013 -95.67110 3005 ft 148 kts 303°
2026-05-05 15:41 40.98525 -95.68293 3005 ft 147 kts 305°
2026-05-05 15:41 40.99063 -95.69428 3007 ft 147 kts 308°
2026-05-05 15:41 40.99637 -95.70557 3004 ft 147 kts 308°
2026-05-05 15:42 41.00230 -95.71662 3007 ft 147 kts 310°
2026-05-05 15:42 41.00841 -95.72756 3007 ft 147 kts 311°
2026-05-05 15:42 41.01456 -95.73824 3011 ft 147 kts 311°
2026-05-05 15:42 41.02088 -95.74895 3002 ft 146 kts 312°
2026-05-05 15:43 41.02720 -95.75950 3007 ft 147 kts 312°
2026-05-05 15:43 41.03364 -95.77010 3007 ft 148 kts 312°
2026-05-05 15:43 41.04018 -95.78080 3010 ft 147 kts 313°
2026-05-05 15:43 41.04670 -95.79137 2848 ft 149 kts 313°
2026-05-05 15:44 41.05329 -95.80203 2653 ft 146 kts 312°
2026-05-05 15:44 41.05975 -95.81244 2475 ft 147 kts 312°
2026-05-05 15:44 41.06617 -95.82280 2299 ft 147 kts 311°
2026-05-05 15:44 41.07273 -95.83337 2116 ft 147 kts 310°
2026-05-05 15:45 41.07929 -95.84392 1936 ft 147 kts 309°
2026-05-05 15:45 41.08580 -95.85459 1721 ft 148 kts 308°
2026-05-05 15:45 41.09214 -95.86517 1498 ft 148 kts 309°
2026-05-05 15:45 41.09855 -95.87557 1307 ft 143 kts 310°
2026-05-05 15:46 41.10518 -95.88586 1148 ft 146 kts 311°
2026-05-05 15:46 41.11175 -95.89615 985 ft 145 kts 309°
2026-05-05 15:46 41.11792 -95.90621 987 ft 145 kts 310°
2026-05-05 15:46 41.12284 -95.91408 1026 ft 72 kts 309°
2026-05-05 15:47 41.12473 -95.91723 1035 ft 30 kts 305°
2026-05-05 15:47 41.12463 -95.91844 1037 ft 18 kts 204°
2026-05-05 15:47 41.12357 -95.91709 1033 ft 20 kts 126°
2026-05-05 15:47 41.12274 -95.91588 1028 ft 15 kts 160°
2026-05-05 15:48 41.12175 -95.91524 1022 ft 19 kts 131°
2026-05-05 15:48 41.12086 -95.91379 1017 ft 14 kts 128°
2026-05-05 15:48 41.12006 -95.91264 1011 ft 17 kts 158°
2026-05-05 15:48 41.11883 -95.91226 1005 ft 15 kts 158°
2026-05-05 15:49 41.11793 -95.91126 999 ft 18 kts 136°
2026-05-05 15:49 41.11698 -95.91005 990 ft 21 kts 135°
2026-05-05 15:49 41.11586 -95.90860 984 ft 22 kts 135°
2026-05-05 15:49 41.11491 -95.90725 982 ft 20 kts 130°
2026-05-05 15:50 41.11420 -95.90690 980 ft 9 kts 207°
2026-05-05 15:50 41.11359 -95.90675 979 ft 11 kts 130°
2026-05-05 15:50 41.11314 -95.90640 979 ft 5 kts 208°
2026-05-05 15:50 41.11289 -95.90668 979 ft 0 kts 220°
2026-05-05 15:51 41.11289 -95.90669 979 ft 0 kts 220°